EWG063 EGLL-LIMJ

Flight info

Callsign EWG063
Flight time N/A
Altitude 35000
Route MODMI M185 MID UL612 OGULO DCT OKASI DCT OKEKO DCT MOU DCT MADIV DCT MOKIP DCT TUFTA DCT GEVEA/N0458F330 DCT MOBLO DCT LURAG DCT OBUXA DCT TOP/N0399F190 M730 TESTO
Aircraft A320/M-SDE3FGHIRWY/LB1

Departure

Time N/A
Airport London Heathrow Airport (EGLL)

Arrival

Time 2026-05-04 20:30
Airport Genoa Cristoforo Colombo Airport (LIMJ)
Time Latitude Longitude Altitude Speed Heading
2026-05-04 20:09 45.23742 7.54279 35091 ft 445 kts 149°
2026-05-04 20:10 45.18793 7.59379 35095 ft 445 kts 149°
2026-05-04 20:10 45.08754 7.69665 35068 ft 446 kts 149°
2026-05-04 20:11 45.03449 7.75087 35080 ft 447 kts 149°
2026-05-04 20:11 45.01567 7.77018 35085 ft 448 kts 149°
2026-05-04 20:12 44.96512 7.82167 35086 ft 448 kts 150°
2026-05-04 20:12 44.91928 7.88257 35079 ft 461 kts 132°
2026-05-04 20:13 44.88552 7.96041 35084 ft 468 kts 124°
2026-05-04 20:13 44.86940 8.00040 34857 ft 470 kts 124°
2026-05-04 20:13 44.85311 8.04074 33830 ft 478 kts 124°
2026-05-04 20:13 44.83657 8.08163 32793 ft 483 kts 124°
2026-05-04 20:14 44.81981 8.12298 31747 ft 487 kts 124°
2026-05-04 20:14 44.80307 8.16420 31035 ft 483 kts 124°
2026-05-04 20:14 44.78636 8.20524 30124 ft 484 kts 124°
2026-05-04 20:14 44.76959 8.24635 29036 ft 484 kts 124°
2026-05-04 20:15 44.75295 8.28714 27384 ft 480 kts 123°
2026-05-04 20:15 44.73625 8.32799 25617 ft 482 kts 123°
2026-05-04 20:15 44.71968 8.36849 24380 ft 478 kts 122°
2026-05-04 20:15 44.70297 8.40919 23203 ft 481 kts 122°
2026-05-04 20:16 44.68629 8.44970 22274 ft 477 kts 122°
2026-05-04 20:16 44.66979 8.48981 21405 ft 472 kts 123°
2026-05-04 20:16 44.65345 8.52955 20542 ft 468 kts 123°
2026-05-04 20:16 44.63725 8.56892 19693 ft 464 kts 123°
2026-05-04 20:17 44.62118 8.60784 18902 ft 460 kts 123°
2026-05-04 20:17 44.60520 8.64644 18263 ft 453 kts 123°
2026-05-04 20:17 44.58946 8.68445 17457 ft 448 kts 123°
2026-05-04 20:17 44.57392 8.72209 16689 ft 444 kts 123°
2026-05-04 20:18 44.55795 8.75876 16193 ft 432 kts 129°
2026-05-04 20:18 44.53733 8.78787 15796 ft 414 kts 147°
2026-05-04 20:18 44.51226 8.80632 15187 ft 403 kts 162°
2026-05-04 20:18 44.48592 8.81928 14538 ft 400 kts 163°
2026-05-04 20:19 44.45968 8.83169 13877 ft 397 kts 163°
2026-05-04 20:19 44.43357 8.84390 13188 ft 393 kts 163°
2026-05-04 20:19 44.40771 8.85580 12566 ft 389 kts 163°
2026-05-04 20:19 44.38212 8.86739 11939 ft 384 kts 163°
2026-05-04 20:20 44.35687 8.87863 11325 ft 379 kts 163°
2026-05-04 20:20 44.33189 8.88957 10711 ft 374 kts 163°
2026-05-04 20:20 44.30726 8.90016 10295 ft 364 kts 163°
2026-05-04 20:20 44.28361 8.91019 10166 ft 346 kts 163°
2026-05-04 20:21 44.26115 8.91972 10036 ft 330 kts 163°
2026-05-04 20:21 44.24032 8.93011 9906 ft 306 kts 152°
2026-05-04 20:21 44.21589 8.97253 9346 ft 282 kts 115°
2026-05-04 20:22 44.20853 8.99807 9024 ft 279 kts 114°
2026-05-04 20:22 44.20157 9.02273 8683 ft 276 kts 114°
2026-05-04 20:22 44.19702 9.04850 8321 ft 277 kts 93°
2026-05-04 20:22 44.20112 9.07458 7968 ft 280 kts 65°
2026-05-04 20:23 44.21206 9.09709 7548 ft 281 kts 55°
2026-05-04 20:23 44.22426 9.11839 7180 ft 280 kts 54°
2026-05-04 20:23 44.23656 9.13937 6825 ft 278 kts 54°
2026-05-04 20:23 44.24881 9.16007 6477 ft 276 kts 54°
2026-05-04 20:24 44.26110 9.18054 6077 ft 274 kts 53°
2026-05-04 20:24 44.27310 9.20041 5903 ft 258 kts 52°
2026-05-04 20:24 44.28667 9.21525 5749 ft 244 kts 26°
2026-05-04 20:24 44.30313 9.21935 5425 ft 244 kts 354°
2026-05-04 20:25 44.31871 9.21086 5194 ft 243 kts 322°
2026-05-04 20:25 44.33142 9.19515 4996 ft 244 kts 314°
2026-05-04 20:25 44.34057 9.17551 4850 ft 242 kts 288°
2026-05-04 20:25 44.34554 9.15331 4557 ft 239 kts 283°
2026-05-04 20:26 44.35009 9.13097 4235 ft 240 kts 284°
2026-05-04 20:26 44.35491 9.10847 3888 ft 243 kts 285°
2026-05-04 20:26 44.35982 9.08589 3553 ft 243 kts 285°
2026-05-04 20:26 44.36466 9.06363 3219 ft 236 kts 285°
2026-05-04 20:27 44.36932 9.04215 2888 ft 224 kts 286°
2026-05-04 20:27 44.37369 9.02200 2601 ft 209 kts 286°
2026-05-04 20:27 44.37772 9.00337 2309 ft 192 kts 286°
2026-05-04 20:27 44.38146 8.98607 2059 ft 180 kts 285°
2026-05-04 20:28 44.38499 8.96976 1799 ft 168 kts 285°
2026-05-04 20:28 44.38825 8.95465 1540 ft 157 kts 285°
2026-05-04 20:28 44.39137 8.94022 1338 ft 152 kts 286°
2026-05-04 20:28 44.39441 8.92607 1123 ft 151 kts 285°
2026-05-04 20:29 44.39797 8.91234 920 ft 151 kts 290°
2026-05-04 20:29 44.40113 8.89859 687 ft 149 kts 282°
2026-05-04 20:29 44.40373 8.88431 477 ft 149 kts 284°
2026-05-04 20:29 44.40641 8.87029 251 ft 148 kts 283°
2026-05-04 20:30 44.40911 8.85627 44 ft 150 kts 283°
2026-05-04 20:30 44.41164 8.84339 22 ft 117 kts 285°
2026-05-04 20:30 44.41333 8.83478 23 ft 67 kts 285°
2026-05-04 20:30 44.41426 8.83146 23 ft 22 kts 317°
2026-05-04 20:31 44.41507 8.83084 24 ft 9 kts
2026-05-04 20:31 44.41546 8.83125 26 ft 6 kts 62°
2026-05-04 20:31 44.41549 8.83170 27 ft 4 kts 97°
2026-05-04 20:31 44.41545 8.83196 25 ft 2 kts 105°
2026-05-04 20:32 44.41539 8.83226 28 ft 6 kts 105°
2026-05-04 20:32 44.41521 8.83315 24 ft 13 kts 105°
2026-05-04 20:32 44.41492 8.83466 22 ft 18 kts 105°
2026-05-04 20:32 44.41455 8.83648 21 ft 21 kts 105°
2026-05-04 20:33 44.41413 8.83861 20 ft 24 kts 105°
2026-05-04 20:33 44.41368 8.84094 18 ft 26 kts 105°
2026-05-04 20:33 44.41321 8.84333 18 ft 19 kts 105°
2026-05-04 20:33 44.41296 8.84468 20 ft 15 kts 105°
2026-05-04 20:34 44.41264 8.84623 20 ft 18 kts 106°
2026-05-04 20:34 44.41229 8.84800 18 ft 21 kts 105°
2026-05-04 20:34 44.41239 8.84923 17 ft 11 kts 25°
2026-05-04 20:34 44.41301 8.84945 18 ft 9 kts 15°
2026-05-04 20:35 44.41343 8.84987 18 ft 7 kts 69°
2026-05-04 20:35 44.41336 8.85064 18 ft 8 kts 82°
2026-05-04 20:35 44.41377 8.85096 18 ft 5 kts 11°
2026-05-04 20:35 44.41389 8.85099 18 ft 3 kts 14°
2026-05-04 20:36 44.41406 8.85106 18 ft 2 kts 15°
2026-05-04 20:36 44.41410 8.85107 18 ft 0 kts 15°
2026-05-04 20:36 44.41407 8.85106 18 ft 0 kts 15°
2026-05-04 20:36 44.41406 8.85106 18 ft 0 kts 15°